Find Starlink 3701

NORAD ID: 52095 Int'l Des: 2022-029 Owner: SPXS Country: US Constellation: starlink operational
LEOCIRCULAR

当前视图

正在加载3D地球...

About Starlink 3701

Starlink 3701 (NORAD 52095) is a starlink constellation satellite (v1.5) launched Mar 19, 2022 by SPXS of US. It operates in LEO, CIRCULAR orbit with a mass of 297.00 kg.

即将过境

Passes for default location (London). Set your location on the main map for personalized predictions.

高度历史

Loading altitude history...

两行轨道根数

1 52095U 22029H 26236.89065708 -.00001591 00000-0 -35960-4 0 9993
2 52095 53.1610 42.0480 0000984 87.1163 272.9953 15.34394877246217
Epoch: Aug 24, 2026 • Age: 18 hours

当前状态

高度 481.5 km
远地点 / 近地点 N/A
速度 7.62 km/s
星下点 -52.31°S, 83.63°E
发射日期 Mar 19, 2022
运行时间 4.4 years
类型 internet

技术详情

分类 Payload
质量 297.00 kg
干质量 275.00 kg
总质量 297.00 kg
长度 0.20 m
直径 2.80 m
跨度 9.00 m
形状 Box + pan
制造商 SPXS
平台类型 Starlink
阶段状态 In Orbit
所有者/国家 SPXS/US

Most Searched